| time (UTC) | temp F | wind direction | speed MPH | gust MPH | rain 1hr in | rain 24hr in | rain mn in | humidity % | barometer mb |
| 20260504231527 | 63 | 211 | 1.0 | 5.0 | 0.00 | 0.15 | 0.11 | 69 | 1018.6 |
| 20260504231027 | 63 | 217 | 2.0 | 7.0 | 0.00 | 0.15 | 0.11 | 69 | 1018.7 |
| 20260504230529 | 63 | 176 | 1.0 | 5.0 | 0.00 | 0.15 | 0.11 | 70 | 1018.7 |
| 20260504230024 | 63 | 223 | 2.0 | 5.0 | 0.00 | 0.15 | 0.11 | 71 | 1018.8 |
| 20260504225525 | 62 | 215 | 1.0 | 4.0 | 0.00 | 0.15 | 0.11 | 72 | 1018.7 |
| 20260504225023 | 62 | 213 | 1.0 | 5.0 | 0.00 | 0.15 | 0.11 | 73 | 1018.8 |
| 20260504224532 | 62 | 207 | 0.0 | 5.0 | 0.00 | 0.15 | 0.11 | 73 | 1018.7 |
| 20260504224023 | 62 | 160 | 0.0 | 5.0 | 0.00 | 0.15 | 0.11 | 73 | 1018.8 |
| 20260504223523 | 61 | 198 | 1.0 | 8.0 | 0.00 | 0.15 | 0.11 | 74 | 1018.8 |
| 20260504223022 | 61 | 125 | 3.0 | 8.0 | 0.00 | 0.15 | 0.11 | 74 | 1018.7 |
| 20260504222520 | 61 | 219 | 0.0 | 3.0 | 0.00 | 0.15 | 0.11 | 78 | 1018.7 |
| 20260504222019 | 60 | 151 | 0.0 | 5.0 | 0.00 | 0.15 | 0.11 | 78 | 1018.6 |
| 20260504221519 | 60 | 134 | 1.0 | 7.0 | 0.00 | 0.15 | 0.11 | 80 | 1018.5 |
| 20260504221017 | 60 | 140 | 1.0 | 7.0 | 0.00 | 0.15 | 0.11 | 81 | 1018.3 |
| 20260504220515 | 60 | 149 | 1.0 | 4.0 | 0.00 | 0.15 | 0.11 | 82 | 1018.3 |
| 20260504220015 | 60 | 111 | 0.0 | 4.0 | 0.00 | 0.15 | 0.11 | 82 | 1018.1 |
| 20260504215514 | 60 | 133 | 1.0 | 4.0 | 0.00 | 0.15 | 0.11 | 82 | 1018.2 |
| 20260504215015 | 60 | 116 | 1.0 | 3.0 | 0.00 | 0.15 | 0.11 | 82 | 1018.1 |
| 20260504214513 | 60 | 170 | 0.0 | 3.0 | 0.00 | 0.15 | 0.11 | 83 | 1017.9 |
| 20260504214012 | 60 | 180 | 0.0 | 3.0 | 0.00 | 0.15 | 0.11 | 82 | 1017.8 |
| 20260504213514 | 60 | 150 | 0.0 | 2.0 | 0.00 | 0.15 | 0.11 | 83 | 1017.8 |
| 20260504213026 | 60 | 148 | 0.0 | 2.0 | 0.00 | 0.15 | 0.11 | 82 | 1017.7 |
| 20260504212509 | 60 | 148 | 0.0 | 4.0 | 0.00 | 0.15 | 0.11 | 82 | 1017.4 |
| 20260504212008 | 59 | 131 | 1.0 | 4.0 | 0.00 | 0.15 | 0.11 | 83 | 1017.4 |
| 20260504211507 | 59 | 138 | 1.0 | 3.0 | 0.00 | 0.15 | 0.11 | 84 | 1017.4 |
| 20260504211005 | 59 | 132 | 0.0 | 2.0 | 0.00 | 0.15 | 0.11 | 84 | 1017.3 |
| 20260504210505 | 59 | 131 | 0.0 | 1.0 | 0.00 | 0.15 | 0.11 | 84 | 1017.2 |
| 20260504210002 | 59 | 131 | 0.0 | 4.0 | 0.00 | 0.15 | 0.11 | 85 | 1017.0 |
| 20260504205501 | 59 | 131 | 1.0 | 4.0 | 0.01 | 0.15 | 0.11 | 86 | 1016.9 |
| 20260504205103 | 59 | 222 | 0.0 | 3.0 | 0.01 | 0.15 | 0.11 | 88 | 1016.8 |
| 20260504204559 | 59 | 135 | 0.0 | 2.0 | 0.01 | 0.15 | 0.11 | 90 | 1016.8 |
| 20260504204058 | 59 | 146 | 0.0 | 2.0 | 0.01 | 0.15 | 0.11 | 91 | 1016.7 |
| 20260504203558 | 59 | 146 | 0.0 | 2.0 | 0.01 | 0.15 | 0.11 | 91 | 1016.7 |
| 20260504203055 | 59 | 252 | 0.0 | 0.0 | 0.01 | 0.15 | 0.11 | 92 | 1016.5 |
| 20260504202554 | 59 | 257 | 0.0 | 1.0 | 0.01 | 0.15 | 0.11 | 92 | 1016.5 |
| 20260504202055 | 59 | 260 | 0.0 | 2.0 | 0.01 | 0.15 | 0.11 | 93 | 1016.3 |
| 20260504201554 | 59 | 260 | 0.0 | 2.0 | 0.01 | 0.15 | 0.11 | 93 | 1016.3 |
| 20260504201052 | 59 | 260 | 0.0 | 2.0 | 0.01 | 0.15 | 0.11 | 93 | 1016.1 |
| 20260504200552 | 60 | 260 | 0.0 | 4.0 | 0.01 | 0.15 | 0.11 | 94 | 1016.2 |
| 20260504200051 | 60 | 198 | 0.0 | 4.0 | 0.01 | 0.15 | 0.11 | 94 | 1016.1 |
| 20260504195549 | 60 | 244 | 0.0 | 4.0 | 0.00 | 0.14 | 0.10 | 94 | 1016.0 |
| 20260504195048 | 60 | 251 | 0.0 | 4.0 | 0.00 | 0.14 | 0.10 | 95 | 1016.2 |
| 20260504194553 | 60 | 251 | 0.0 | 3.0 | 0.00 | 0.14 | 0.10 | 95 | 1016.0 |
| 20260504194046 | 61 | 251 | 0.0 | 4.0 | 0.00 | 0.14 | 0.10 | 95 | 1016.0 |
| 20260504193545 | 61 | 248 | 2.0 | 4.0 | 0.00 | 0.14 | 0.10 | 96 | 1016.0 |
| 20260504193047 | 61 | 284 | 1.0 | 3.0 | 0.00 | 0.14 | 0.10 | 96 | 1015.8 |
| 20260504192542 | 61 | 281 | 2.0 | 4.0 | 0.00 | 0.14 | 0.10 | 96 | 1015.7 |
| 20260504192041 | 62 | 285 | 1.0 | 4.0 | 0.00 | 0.14 | 0.10 | 96 | 1015.5 |
| 20260504191606 | 62 | 259 | 1.0 | 3.0 | 0.00 | 0.14 | 0.10 | 96 | 1015.5 |
| 20260504191040 | 62 | 258 | 0.0 | 3.0 | 0.00 | 0.14 | 0.10 | 96 | 1015.5 |
| 20260504190540 | 62 | 257 | 0.0 | 2.0 | 0.00 | 0.14 | 0.10 | 96 | 1015.4 |
| 20260504190040 | 62 | 257 | 0.0 | 2.0 | 0.00 | 0.14 | 0.10 | 96 | 1015.3 |
| 20260504185538 | 62 | 257 | 0.0 | 3.0 | 0.00 | 0.14 | 0.10 | 96 | 1015.3 |
| 20260504185038 | 62 | 257 | 0.0 | 3.0 | 0.00 | 0.14 | 0.10 | 96 | 1015.4 |
| 20260504184549 | 62 | 257 | 0.0 | 3.0 | 0.00 | 0.14 | 0.10 | 96 | 1015.3 |
| 20260504184038 | 62 | 257 | 1.0 | 4.0 | 0.00 | 0.14 | 0.10 | 96 | 1015.4 |
| 20260504183538 | 62 | 259 | 2.0 | 4.0 | 0.00 | 0.14 | 0.10 | 96 | 1015.4 |
| 20260504183038 | 62 | 282 | 2.0 | 4.0 | 0.00 | 0.14 | 0.10 | 96 | 1015.4 |
| 20260504182537 | 62 | 253 | 1.0 | 3.0 | 0.00 | 0.14 | 0.10 | 96 | 1015.4 |
| 20260504182037 | 62 | 245 | 1.0 | 3.0 | 0.00 | 0.14 | 0.10 | 96 | 1015.3 |
| 20260504181538 | 63 | 242 | 0.0 | 3.0 | 0.00 | 0.14 | 0.10 | 96 | 1015.3 |
| 20260504181037 | 63 | 259 | 1.0 | 5.0 | 0.00 | 0.14 | 0.10 | 96 | 1015.3 |
| 20260504180536 | 63 | 247 | 2.0 | 5.0 | 0.00 | 0.14 | 0.10 | 96 | 1015.2 |
| 20260504180037 | 63 | 285 | 1.0 | 3.0 | 0.00 | 0.14 | 0.10 | 96 | 1015.2 |
| 20260504175536 | 63 | 294 | 0.0 | 2.0 | 0.00 | 0.14 | 0.10 | 96 | 1015.3 |
| 20260504175035 | 63 | 291 | 1.0 | 4.0 | 0.00 | 0.14 | 0.10 | 95 | 1015.3 |
| 20260504174535 | 63 | 291 | 2.0 | 5.0 | 0.00 | 0.14 | 0.10 | 95 | 1015.2 |
| 20260504174035 | 63 | 284 | 2.0 | 5.0 | 0.00 | 0.14 | 0.10 | 95 | 1015.2 |
| 20260504173535 | 63 | 318 | 2.0 | 3.0 | 0.00 | 0.14 | 0.10 | 95 | 1014.9 |
| 20260504173034 | 63 | 298 | 1.0 | 3.0 | 0.01 | 0.14 | 0.10 | 95 | 1014.8 |
| 20260504172534 | 63 | 313 | 0.0 | 3.0 | 0.01 | 0.14 | 0.10 | 95 | 1014.8 |
| 20260504172033 | 63 | 273 | 1.0 | 3.0 | 0.01 | 0.14 | 0.10 | 95 | 1015.0 |
| 20260504171538 | 63 | 289 | 1.0 | 4.0 | 0.01 | 0.14 | 0.10 | 95 | 1015.0 |
| 20260504171033 | 63 | 303 | 1.0 | 7.0 | 0.02 | 0.14 | 0.10 | 95 | 1015.2 |
| 20260504170532 | 63 | 274 | 3.0 | 7.0 | 0.02 | 0.14 | 0.10 | 95 | 1015.3 |
| 20260504151021 | 64 | 265 | 3.0 | 10.0 | 0.02 | 0.06 | 0.02 | 93 | 1015.2 |
| 20260504150524 | 64 | 267 | 4.0 | 11.0 | 0.01 | 0.05 | 0.01 | 94 | 1015.2 |
| 20260504141017 | 63 | 311 | 0.0 | 2.0 | 0.01 | 0.04 | 0.00 | 94 | 1014.5 |
| 20260504140511 | 63 | 297 | 0.0 | 2.0 | 0.01 | 0.04 | 0.00 | 94 | 1014.5 |
| 20260504130507 | 63 | 305 | 1.0 | 3.0 | 0.00 | 0.03 | 0.03 | 94 | 1014.9 |
| 20260504110502 | 64 | 278 | 0.0 | 2.0 | 0.03 | 0.03 | 0.03 | 91 | 1015.7 |
| 20260504100602 | 67 | 287 | 2.0 | 10.0 | 0.00 | 0.00 | 0.00 | 81 | 1015.9 |
| 20260504100105 | 68 | 273 | 3.0 | 11.0 | 0.00 | 0.00 | 0.00 | 79 | 1016.0 |
| 20260504081556 | 70 | 253 | 1.0 | 7.0 | 0.00 | 0.00 | 0.00 | 72 | 1014.8 |
| 20260504081057 | 70 | 277 | 2.0 | 8.0 | 0.00 | 0.00 | 0.00 | 72 | 1014.8 |
| 20260504080557 | 71 | 281 | 3.0 | 8.0 | 0.00 | 0.00 | 0.00 | 70 | 1014.8 |
| 20260504050550 | 75 | 270 | 0.0 | 0.0 | 0.00 | 0.00 | 0.00 | 61 | 1014.1 |
| 20260504045549 | 75 | 271 | 0.0 | 0.0 | 0.00 | 0.00 | 0.00 | 63 | 1014.1 |
| 20260504045049 | 75 | 271 | 0.0 | 0.0 | 0.00 | 0.00 | 0.00 | 62 | 1013.9 |
| 20260504044549 | 75 | 271 | 0.0 | 0.0 | 0.00 | 0.00 | 0.00 | 61 | 1014.1 |
| 20260504044048 | 76 | 274 | 0.0 | 2.0 | 0.00 | 0.00 | 0.00 | 62 | 1014.0 |
| 20260504043548 | 76 | 274 | 0.0 | 3.0 | 0.00 | 0.00 | 0.00 | 61 | 1014.0 |
| 20260504043050 | 76 | 274 | 1.0 | 4.0 | 0.00 | 0.00 | 0.00 | 59 | 1014.2 |
| 20260504042548 | 76 | 235 | 1.0 | 4.0 | 0.00 | 0.00 | 0.00 | 59 | 1014.3 |
| 20260504042046 | 76 | 239 | 1.0 | 3.0 | 0.00 | 0.00 | 0.00 | 58 | 1014.3 |
| 20260504041546 | 77 | 205 | 0.0 | 1.0 | 0.00 | 0.00 | 0.00 | 58 | 1014.3 |
| 20260504041045 | 76 | 201 | 0.0 | 2.0 | 0.00 | 0.00 | 0.00 | 61 | 1014.4 |
| 20260504040547 | 76 | 285 | 0.0 | 2.0 | 0.00 | 0.00 | 0.00 | 61 | 1014.4 |
| 20260504040044 | 75 | 221 | 1.0 | 2.0 | 0.00 | 0.00 | 0.00 | 61 | 1014.5 |
| 20260504035543 | 75 | 192 | 0.0 | 2.0 | 0.00 | 0.00 | 0.00 | 62 | 1014.6 |
| 20260504035044 | 75 | 162 | 0.0 | 3.0 | 0.00 | 0.00 | 0.00 | 62 | 1014.7 |
| 20260504034554 | 75 | 160 | 0.0 | 3.0 | 0.00 | 0.00 | 0.00 | 61 | 1014.7 |
| 20260504034043 | 75 | 172 | 1.0 | 3.0 | 0.00 | 0.00 | 0.00 | 61 | 1014.6 |
| 20260504033542 | 75 | 156 | 1.0 | 4.0 | 0.00 | 0.00 | 0.00 | 60 | 1014.6 |
| 20260504033054 | 75 | 241 | 1.0 | 6.0 | 0.00 | 0.00 | 0.00 | 61 | 1014.6 |
| 20260504032544 | 75 | 223 | 2.0 | 7.0 | 0.00 | 0.00 | 0.00 | 60 | 1014.7 |
| 20260504032041 | 76 | 240 | 2.0 | 7.0 | 0.00 | 0.00 | 0.00 | 61 | 1014.8 |
| 20260504031556 | 76 | 224 | 0.0 | 8.0 | 0.00 | 0.00 | 0.00 | 61 | 1014.8 |
| 20260504031039 | 76 | 208 | 3.0 | 8.0 | 0.00 | 0.00 | 0.00 | 60 | 1014.9 |
| 20260504030538 | 76 | 215 | 2.0 | 6.0 | 0.00 | 0.00 | 0.00 | 60 | 1015.0 |
| 20260504030045 | 76 | 192 | 2.0 | 7.0 | 0.00 | 0.00 | 0.00 | 60 | 1015.1 |
| 20260504025538 | 76 | 235 | 2.0 | 6.0 | 0.00 | 0.00 | 0.00 | 59 | 1015.1 |
| 20260504025038 | 76 | 186 | 3.0 | 7.0 | 0.00 | 0.00 | 0.00 | 58 | 1015.1 |
| 20260504024543 | 76 | 277 | 1.0 | 7.0 | 0.00 | 0.00 | 0.00 | 58 | 1015.3 |
| 20260504024037 | 76 | 232 | 1.0 | 8.0 | 0.00 | 0.00 | 0.00 | 57 | 1015.3 |
| 20260504023537 | 77 | 244 | 2.0 | 8.0 | 0.00 | 0.00 | 0.00 | 57 | 1015.2 |
| 20260504023039 | 77 | 221 | 2.0 | 9.0 | 0.00 | 0.00 | 0.00 | 57 | 1015.3 |
| 20260504022537 | 77 | 245 | 4.0 | 9.0 | 0.00 | 0.00 | 0.00 | 56 | 1015.4 |
| 20260504022035 | 77 | 253 | 2.0 | 5.0 | 0.00 | 0.00 | 0.00 | 57 | 1015.5 |
| 20260504021536 | 78 | 278 | 2.0 | 7.0 | 0.00 | 0.00 | 0.00 | 56 | 1015.6 |
| 20260504021034 | 78 | 234 | 2.0 | 7.0 | 0.00 | 0.00 | 0.00 | 58 | 1015.7 |
| 20260504020532 | 77 | 288 | 3.0 | 5.0 | 0.00 | 0.00 | 0.00 | 57 | 1015.8 |
| 20260504020031 | 76 | 301 | 2.0 | 5.0 | 0.00 | 0.00 | 0.00 | 60 | 1015.9 |
| 20260504015530 | 76 | 286 | 1.0 | 5.0 | 0.00 | 0.00 | 0.00 | 59 | 1016.1 |
| 20260504015033 | 76 | 288 | 2.0 | 5.0 | 0.00 | 0.00 | 0.00 | 58 | 1016.1 |
| 20260504014528 | 76 | 330 | 1.0 | 5.0 | 0.00 | 0.00 | 0.00 | 59 | 1016.2 |
| 20260504014030 | 76 | 299 | 2.0 | 8.0 | 0.00 | 0.00 | 0.00 | 60 | 1016.3 |
| 20260504013527 | 75 | 282 | 3.0 | 8.0 | 0.00 | 0.00 | 0.00 | 59 | 1016.4 |
| 20260504013035 | 76 | 279 | 2.0 | 6.0 | 0.00 | 0.00 | 0.00 | 59 | 1016.4 |
| 20260504012526 | 76 | 291 | 0.0 | 4.0 | 0.00 | 0.00 | 0.00 | 61 | 1016.4 |
| 20260504012025 | 76 | 273 | 2.0 | 4.0 | 0.00 | 0.00 | 0.00 | 60 | 1016.5 |
| 20260504011525 | 75 | 290 | 0.0 | 4.0 | 0.00 | 0.00 | 0.00 | 61 | 1016.5 |
| 20260504011025 | 75 | 263 | 1.0 | 8.0 | 0.00 | 0.00 | 0.00 | 61 | 1016.5 |
| 20260504010522 | 74 | 271 | 3.0 | 8.0 | 0.00 | 0.00 | 0.00 | 60 | 1016.6 |
| 20260504010021 | 74 | 322 | 2.0 | 8.0 | 0.00 | 0.00 | 0.00 | 60 | 1016.5 |
| 20260504005519 | 74 | 292 | 2.0 | 9.0 | 0.00 | 0.00 | 0.00 | 61 | 1016.5 |
| 20260504005020 | 74 | 273 | 4.0 | 9.0 | 0.00 | 0.00 | 0.00 | 61 | 1016.6 |
| 20260504004519 | 74 | 256 | 2.0 | 7.0 | 0.00 | 0.00 | 0.00 | 62 | 1016.5 |
| 20260504004017 | 74 | 62 | 2.0 | 7.0 | 0.00 | 0.00 | 0.00 | 65 | 1016.6 |
| 20260504003514 | 73 | 316 | 3.0 | 8.0 | 0.00 | 0.00 | 0.00 | 66 | 1016.7 |
| 20260504003026 | 73 | 238 | 4.0 | 10.0 | 0.00 | 0.00 | 0.00 | 67 | 1016.7 |
| 20260504002512 | 72 | 302 | 3.0 | 10.0 | 0.00 | 0.00 | 0.00 | 66 | 1016.8 |
| 20260504002011 | 72 | 324 | 2.0 | 6.0 | 0.00 | 0.00 | 0.00 | 68 | 1016.8 |
| 20260504001509 | 72 | 274 | 1.0 | 8.0 | 0.00 | 0.00 | 0.00 | 69 | 1016.8 |
| 20260504001009 | 72 | 325 | 4.0 | 8.0 | 0.00 | 0.00 | 0.00 | 69 | 1016.8 |
| 20260504000507 | 72 | 290 | 1.0 | 5.0 | 0.00 | 0.00 | 0.00 | 70 | 1016.8 |
| 20260504000006 | 71 | 268 | 2.0 | 8.0 | 0.00 | 0.00 | 0.00 | 71 | 1016.8 |
| 20260503235504 | 71 | 250 | 3.0 | 8.0 | 0.00 | 0.00 | 0.00 | 71 | 1016.8 |
| 20260503235003 | 70 | 300 | 3.0 | 8.0 | 0.00 | 0.00 | 0.00 | 72 | 1016.8 |
| 20260503234502 | 70 | 284 | 2.0 | 8.0 | 0.00 | 0.00 | 0.00 | 74 | 1016.9 |
| 20260503234101 | 70 | 13 | 4.0 | 8.0 | 0.00 | 0.00 | 0.00 | 74 | 1016.9 |
| 20260503233600 | 69 | 284 | 3.0 | 8.0 | 0.00 | 0.00 | 0.00 | 75 | 1017.0 |
| 20260503233100 | 69 | 299 | 4.0 | 7.0 | 0.00 | 0.00 | 0.00 | 76 | 1017.0 |
| 20260503232558 | 69 | 266 | 3.0 | 9.0 | 0.00 | 0.00 | 0.00 | 76 | 1017.0 |
| 20260503232058 | 69 | 277 | 3.0 | 9.0 | 0.00 | 0.00 | 0.00 | 76 | 1017.0 |